When you browse on this site, cookies collect data to enhance your experience and personalize the content and advertising you see.
Visit our Privacy Policy to learn more. By continuing to use the site, you agree to this use of cookies and data.
  • en France
  • Liste des pays
  • À 7 jours
  • Température de l'eau
  • Carte satellitaire
  • Carte météo
  • Widgets météo
  • user-avatar
    Se connecter

    Météo par heure à Lebedki

    Ce jour, 24 Janvier, Jeudi

    Heure Température Précipitation Vent Pression Humidité
    00:00 -15°C° 0.7 mm 7 m/s 745 mmHg 93%
    01:00 -14°C° 0.7 mm 7 m/s 745 mmHg 94%
    02:00 -15°C° 0 mm 7 m/s 743 mmHg 94%
    03:00 -15°C° 0.6 mm 6 m/s 743 mmHg 94%
    04:00 -15°C° 0.6 mm 6 m/s 742 mmHg 94%
    05:00 -15°C° 0.6 mm 6 m/s 741 mmHg 94%
    06:00 -13°C° 0.3 mm 5 m/s 741 mmHg 94%
    07:00 -13°C° 0.3 mm 5 m/s 741 mmHg 94%
    08:00 -12°C° 0.3 mm 4 m/s 740 mmHg 95%
    09:00 -12°C° 0.2 mm 4 m/s 740 mmHg 95%
    10:00 -11°C° 0.2 mm 4 m/s 740 mmHg 95%
    11:00 -11°C° 0.2 mm 4 m/s 740 mmHg 95%
    12:00 -11°C° 0 mm 4 m/s 741 mmHg 95%
    13:00 -11°C° 0 mm 4 m/s 741 mmHg 95%
    14:00 -12°C° 0 mm 5 m/s 741 mmHg 94%
    15:00 -13°C° 0 mm 5 m/s 742 mmHg 94%
    16:00 -14°C° 0 mm 5 m/s 742 mmHg 94%
    17:00 -14°C° 0 mm 5 m/s 743 mmHg 93%
    18:00 -17°C° 0 mm 5 m/s 744 mmHg 94%
    19:00 -17°C° 0 mm 4 m/s 744 mmHg 94%
    20:00 -18°C° 0 mm 4 m/s 745 mmHg 95%
    21:00 -19°C° 0 mm 4 m/s 746 mmHg 95%
    22:00 -21°C° 0 mm 3 m/s 746 mmHg 96%
    23:00 -22°C° 0 mm 3 m/s 747 mmHg 96%

    Demain, 25 Janvier, Vendredi

    Heure Température Précipitation Vent Pression Humidité
    00:00 -22°C° 0 mm 3 m/s 748 mmHg 96%
    01:00 -22°C° 0 mm 3 m/s 748 mmHg 96%
    02:00 -22°C° 0 mm 3 m/s 749 mmHg 95%
    03:00 -22°C° 0 mm 3 m/s 749 mmHg 96%
    04:00 -22°C° 0 mm 3 m/s 749 mmHg 96%
    05:00 -22°C° 0 mm 3 m/s 750 mmHg 97%
    06:00 -22°C° 0 mm 3 m/s 750 mmHg 97%
    07:00 -22°C° 0 mm 3 m/s 751 mmHg 98%
    08:00 -23°C° 0 mm 3 m/s 751 mmHg 98%
    09:00 -21°C° 0 mm 3 m/s 752 mmHg 97%
    10:00 -19°C° 0 mm 3 m/s 752 mmHg 96%
    11:00 -18°C° 0 mm 3 m/s 753 mmHg 95%
    12:00 -18°C° 0 mm 3 m/s 753 mmHg 95%
    13:00 -18°C° 0 mm 3 m/s 753 mmHg 95%
    14:00 -18°C° 0 mm 3 m/s 753 mmHg 94%
    15:00 -19°C° 0 mm 3 m/s 753 mmHg 95%
    16:00 -21°C° 0 mm 3 m/s 753 mmHg 96%
    17:00 -22°C° 0 mm 3 m/s 753 mmHg 97%
    18:00 -22°C° 0 mm 3 m/s 753 mmHg 96%
    19:00 -23°C° 0 mm 4 m/s 753 mmHg 96%
    20:00 -23°C° 0 mm 4 m/s 753 mmHg 95%
    21:00 -23°C° 0 mm 4 m/s 753 mmHg 94%
    22:00 -24°C° 0 mm 4 m/s 753 mmHg 94%
    23:00 -24°C° 0 mm 4 m/s 753 mmHg 93%

    Après-demain, 26 Janvier, Samedi

    Heure Température Précipitation Vent Pression Humidité
    00:00 -24°C° 0 mm 4 m/s 752 mmHg 92%
    01:00 -24°C° 0 mm 4 m/s 751 mmHg 91%
    02:00 -25°C° 0 mm 5 m/s 751 mmHg 90%
    03:00 -22°C° 0.1 mm 5 m/s 750 mmHg 90%
    04:00 -21°C° 0.1 mm 5 m/s 749 mmHg 91%
    05:00 -20°C° 0.1 mm 5 m/s 749 mmHg 91%
    06:00 -19°C° 0.3 mm 5 m/s 748 mmHg 92%
    07:00 -19°C° 0.3 mm 5 m/s 748 mmHg 93%
    08:00 -18°C° 0.3 mm 5 m/s 747 mmHg 94%
    09:00 -17°C° 0.3 mm 5 m/s 747 mmHg 94%
    10:00 -16°C° 0.3 mm 6 m/s 746 mmHg 94%
    11:00 -15°C° 0.3 mm 6 m/s 745 mmHg 94%
    12:00 -14°C° 0.4 mm 6 m/s 744 mmHg 93%
    13:00 -12°C° 0.4 mm 6 m/s 744 mmHg 93%
    14:00 -12°C° 0.4 mm 6 m/s 743 mmHg 92%
    15:00 -10°C° 0.2 mm 6 m/s 742 mmHg 93%
    16:00 -9°C° 0.2 mm 6 m/s 741 mmHg 93%
    17:00 -6°C° 0.2 mm 6 m/s 741 mmHg 93%
    18:00 -6°C° 0.5 mm 6 m/s 740 mmHg 93%
    19:00 -5°C° 0.5 mm 6 m/s 740 mmHg 93%
    20:00 -4°C° 0.5 mm 7 m/s 739 mmHg 93%
    21:00 -3°C° 0.2 mm 7 m/s 739 mmHg 92%
    22:00 -3°C° 0.2 mm 7 m/s 738 mmHg 92%
    23:00 -2°C° 0.2 mm 7 m/s 738 mmHg 91%

    27 Janvier, Dimanche

    Heure Température Précipitation Vent Pression Humidité
    00:00 -2°C° 0 mm 7 m/s 737 mmHg 91%
    01:00 -2°C° 0 mm 7 m/s 737 mmHg 91%
    02:00 -2°C° 0 mm 7 m/s 736 mmHg 92%
    03:00 -2°C° 0.3 mm 7 m/s 736 mmHg 92%
    04:00 -2°C° 0.3 mm 7 m/s 735 mmHg 92%
    05:00 -2°C° 0.3 mm 7 m/s 735 mmHg 92%
    06:00 -2°C° 0.6 mm 7 m/s 734 mmHg 92%
    07:00 -2°C° 0.6 mm 7 m/s 734 mmHg 92%
    08:00 -3°C° 0.6 mm 7 m/s 734 mmHg 92%
    09:00 -3°C° 0.8 mm 6 m/s 734 mmHg 93%
    10:00 -3°C° 0.8 mm 6 m/s 733 mmHg 93%
    11:00 -3°C° 0.8 mm 6 m/s 733 mmHg 94%
    12:00 -2°C° 0.6 mm 5 m/s 733 mmHg 95%
    13:00 -2°C° 0.6 mm 4 m/s 732 mmHg 96%
    14:00 -1°C° 0.6 mm 3 m/s 732 mmHg 97%
    15:00 -4°C° 0.7 mm 4 m/s 732 mmHg 96%
    16:00 -6°C° 0.7 mm 5 m/s 732 mmHg 95%
    17:00 -9°C° 0.7 mm 6 m/s 732 mmHg 94%
    18:00 -10°C° 0.4 mm 6 m/s 733 mmHg 94%
    19:00 -10°C° 0.4 mm 6 m/s 733 mmHg 93%
    20:00 -11°C° 0.4 mm 6 m/s 734 mmHg 93%
    21:00 -12°C° 0.1 mm 6 m/s 734 mmHg 92%
    22:00 -14°C° 0.1 mm 6 m/s 735 mmHg 92%
    23:00 -15°C° 0.1 mm 6 m/s 735 mmHg 92%

    28 Janvier, Lundi

    Heure Température Précipitation Vent Pression Humidité
    00:00 -16°C° 0 mm 6 m/s 736 mmHg 92%
    01:00 -17°C° 0 mm 6 m/s 737 mmHg 92%
    02:00 -18°C° 0 mm 5 m/s 737 mmHg 92%
    03:00 -19°C° 0 mm 5 m/s 738 mmHg 92%
    04:00 -19°C° 0 mm 5 m/s 739 mmHg 93%
    05:00 -20°C° 0 mm 5 m/s 739 mmHg 94%
    06:00 -21°C° 0 mm 5 m/s 740 mmHg 94%
    07:00 -20°C° 0 mm 4 m/s 740 mmHg 95%
    08:00 -22°C° 0 mm 4 m/s 741 mmHg 95%
    09:00 -22°C° 0 mm 4 m/s 741 mmHg 94%
    10:00 -20°C° 0 mm 4 m/s 742 mmHg 94%
    11:00 -19°C° 0 mm 4 m/s 742 mmHg 93%
    12:00 -19°C° 0 mm 4 m/s 743 mmHg 93%
    13:00 -18°C° 0 mm 3 m/s 743 mmHg 93%
    14:00 -18°C° 0 mm 3 m/s 743 mmHg 93%
    15:00 -19°C° 0 mm 3 m/s 743 mmHg 93%
    16:00 -19°C° 0 mm 2 m/s 744 mmHg 93%
    17:00 -20°C° 0 mm 2 m/s 744 mmHg 94%
    18:00 -20°C° 0 mm 2 m/s 744 mmHg 93%
    19:00 -20°C° 0 mm 2 m/s 744 mmHg 92%
    20:00 -20°C° 0 mm 2 m/s 745 mmHg 91%
    21:00 -20°C° 0 mm 2 m/s 745 mmHg 90%
    22:00 -17°C° 0 mm 1 m/s 745 mmHg 89%
    23:00 -17°C° 0 mm 1 m/s 745 mmHg 88%

    29 Janvier, Mardi

    Heure Température Précipitation Vent Pression Humidité
    00:00 -17°C° 0 mm 2 m/s 745 mmHg 90%
    01:00 -16°C° 0 mm 2 m/s 745 mmHg 91%
    02:00 -14°C° 0 mm 2 m/s 745 mmHg 92%
    03:00 -15°C° 0 mm 3 m/s 745 mmHg 93%
    04:00 -15°C° 0 mm 3 m/s 744 mmHg 93%
    05:00 -14°C° 0 mm 3 m/s 744 mmHg 94%
    06:00 -14°C° 0.1 mm 4 m/s 744 mmHg 93%
    07:00 -11°C° 0.1 mm 4 m/s 744 mmHg 93%
    08:00 -10°C° 0.1 mm 4 m/s 744 mmHg 93%
    09:00 -10°C° 0 mm 5 m/s 743 mmHg 91%
    10:00 -9°C° 0 mm 6 m/s 743 mmHg 89%
    11:00 -8°C° 0 mm 6 m/s 743 mmHg 88%
    12:00 -6°C° 0.1 mm 6 m/s 743 mmHg 88%
    13:00 -6°C° 0.1 mm 6 m/s 742 mmHg 87%
    14:00 -5°C° 0.1 mm 6 m/s 742 mmHg 87%
    15:00 -5°C° 0.1 mm 6 m/s 742 mmHg 89%
    16:00 -5°C° 0.1 mm 6 m/s 742 mmHg 90%
    17:00 -5°C° 0.1 mm 6 m/s 741 mmHg 92%
    18:00 -4°C° 0.2 mm 6 m/s 741 mmHg 92%
    19:00 -3°C° 0.2 mm 6 m/s 741 mmHg 93%
    20:00 -2°C° 0.2 mm 6 m/s 741 mmHg 93%
    21:00 -1°C° 0.1 mm 5 m/s 741 mmHg 95%
    22:00 -1°C° 0.1 mm 5 m/s 742 mmHg 96%
    23:00 -1°C° 0.1 mm 4 m/s 742 mmHg 97%
    Voir plus